Location: Newark
(43.9494°N, 6.8108°E)
Time: 12:42:46
(UTC+00:00)

S-56A Canister/Altair - All Passes

Search period start: 17 October 2019 00:00
Search period end: 27 October 2019 00:00
Orbit: 633 x 2499 km, 38.9° (Epoch: 15 October)

Date Brightness Start Highest point End Pass type
(mag) Time Alt. Az. Time Alt. Az. Time Alt. Az.
17 Oct - 01:43:52 10° S 01:48:48 23° SE 01:55:16 10° E visible
17 Oct - 03:44:42 10° WSW 03:51:52 56° SSE 04:02:47 10° E visible
17 Oct - 05:47:40 10° W 05:56:39 67° S 06:09:52 10° ESE daylight
17 Oct - 07:51:35 10° W 08:02:03 50° SSW 08:15:48 10° SE daylight
17 Oct - 09:57:27 10° W 10:07:03 25° SW 10:17:56 10° S daylight
18 Oct - 01:12:10 10° S 01:16:17 18° SE 01:21:23 10° E visible
18 Oct - 03:12:23 10° SW 03:19:03 51° SSE 03:29:04 10° E visible
18 Oct - 05:15:08 10° W 05:23:31 67° S 05:36:07 10° ESE visible
18 Oct - 07:18:49 10° W 07:28:46 52° SSW 07:42:18 10° SE daylight
18 Oct - 09:24:10 10° W 09:33:49 27° SW 09:45:08 10° SSE daylight
19 Oct - 00:40:47 10° SSE 00:43:48 14° SE 00:47:19 10° ESE visible
19 Oct - 02:40:09 10° SW 02:46:16 46° SSE 02:55:24 10° E visible
19 Oct - 04:42:39 10° WSW 04:50:27 66° S 05:02:22 10° E visible
19 Oct - 06:46:08 10° W 06:55:31 54° SSW 07:08:45 10° SE daylight
19 Oct - 08:51:02 10° W 09:00:35 30° SW 09:12:12 10° SSE daylight
20 Oct - 00:10:31 10° SE 00:11:22 10° SE 00:12:13 10° ESE visible
20 Oct - 02:07:58 10° SW 02:13:36 40° SSE 02:21:48 10° E visible
20 Oct - 04:10:13 10° WSW 04:17:28 65° S 04:28:38 10° E visible
20 Oct - 06:13:31 10° W 06:22:21 56° SSW 06:35:09 10° SE daylight
20 Oct - 08:18:03 10° W 08:27:22 32° SSW 08:39:07 10° SSE daylight
21 Oct - 01:35:49 10° SW 01:40:59 35° SSE 01:48:16 10° E visible
21 Oct - 03:37:50 10° WSW 03:44:34 62° S 03:54:57 10° E visible
21 Oct - 05:40:58 10° W 05:49:14 57° SSW 06:01:31 10° ESE daylight
21 Oct - 07:45:09 10° W 07:54:11 34° SSW 08:05:56 10° SSE daylight
21 Oct - 09:54:39 10° WSW 09:58:39 12° SW 10:02:54 10° SSW daylight
22 Oct - 01:03:45 10° SSW 01:08:26 29° SSE 01:14:46 10° E visible
22 Oct - 03:05:29 10° WSW 03:11:45 60° S 03:21:20 10° E visible
22 Oct - 05:08:27 10° W 05:16:12 58° S 05:27:52 10° ESE visible
22 Oct - 07:12:22 10° W 07:21:01 36° SSW 07:32:40 10° SSE daylight
22 Oct - 09:20:20 10° WSW 09:25:34 14° SW 09:31:20 10° SSW daylight
23 Oct - 00:31:46 10° SSW 00:35:56 24° SE 00:41:18 10° E visible
23 Oct - 02:33:10 10° WSW 02:39:00 56° SSE 02:47:47 10° E visible
23 Oct - 04:36:00 10° W 04:43:13 59° S 04:54:14 10° ESE visible
23 Oct - 06:39:40 10° W 06:47:55 37° SSW 06:59:19 10° SE daylight
23 Oct - 08:46:34 10° WSW 08:52:29 15° SW 08:59:12 10° SSW daylight
23 Oct - 23:59:51 10° S 00:03:29 20° SE 00:07:52 10° E night (unlit)
24 Oct - 02:00:53 10° WSW 02:06:19 52° SSE 02:14:18 10° E visible
24 Oct - 04:03:34 10° W 04:10:18 59° S 04:20:37 10° ESE visible
24 Oct - 06:07:03 10° W 06:14:52 39° SSW 06:25:56 10° SE daylight
24 Oct - 08:13:10 10° WSW 08:19:25 17° SW 08:26:46 10° S daylight
24 Oct - 23:28:07 10° S 23:31:02 16° SE 23:34:22 10° ESE night (unlit)
25 Oct - 01:28:37 10° SW 01:33:41 47° SSE 01:40:55 10° E visible
25 Oct - 03:31:11 10° W 03:37:28 59° S 03:47:03 10° ESE visible
25 Oct - 05:34:29 10° W 05:41:52 41° SSW 05:52:30 10° SE daylight
25 Oct - 07:39:58 10° WSW 07:46:22 19° SW 07:54:07 10° S daylight
25 Oct - 22:56:40 10° SSE 22:58:36 12° SE 23:00:40 10° ESE night (unlit)
26 Oct - 00:56:23 10° SW 01:01:07 42° SSE 01:07:36 10° E visible
26 Oct - 02:58:50 10° W 03:04:42 58° S 03:13:32 10° ESE visible
26 Oct - 05:01:58 10° W 05:08:55 42° SSW 05:19:04 10° SE visible
26 Oct - 07:06:58 10° WSW 07:13:21 20° SW 07:21:17 10° S daylight
